Regional Weather Roundup
Issued by NWS San Diego, CA

Current Version | Previous Version | Text Only | Print | Product List | Glossary On
Versions: 1 2 3 4 5 6 7 8 9 10 11 12 13 14 15 16 17 18 19 20 21 22 23 24 25 26 27 28 29 30 31 32 33 34 35 36 37 38 39 40 41 42 43 44 45 46 47 48 49 50
000
ASUS46 KSGX 062011
RWRSGX

SAN DIEGO HOURLY WEATHER ROUNDUP
NATIONAL WEATHER SERVICE SAN DIEGO CA
100 PM PDT MON JUL 06 2015

NOTE: "FAIR" INDICATES FEW OR NO CLOUDS BELOW 12,000 FEET WITH NO
SIGNIFICANT WEATHER AND/OR OBSTRUCTIONS TO VISIBILITY.

CAZ042-043-060-061-PZZ750-775-062100-

GREATER SAN DIEGO AREA

CITY           SKY/WX    TMP DP  RH WIND       PRES   REMARKS
LINDBERGH FLD  CLOUDY    70  60  70 NW7       30.05F
POINT LOMA       N/A     68  59  73 NW9         N/A
NATIONAL CITY    N/A     68  63  83 SW3       30.05F
CHULA VISTA      N/A     67  64  87 W5        29.97F
IMPERIAL BEACH CLOUDY    69  61  75 W9        30.04F
BROWN FIELD    CLOUDY    71  61  70 W10       30.04F
MIRAMAR MCAS   CLOUDY    72  60  66 W7        30.04F
MONTGOMERY FLD CLOUDY    69  61  75 W7        30.04F

$$

NORTH SAN DIEGO COUNTY

CITY           SKY/WX    TMP DP  RH WIND       PRES   REMARKS
CAMP PENDLETON MOSUNNY   73  59  61 SW9       30.03F
OCEANSIDE AP   CLOUDY    72  60  66 W12       30.02F
OCEANSIDE HBR    N/A     69  63  82 SW6       30.05F
VISTA            N/A     69  63  79 W3        30.01F
CARLSBAD       CLOUDY    68  61  78 SW8       30.03F
DEL MAR          N/A     67  64  88 CALM      30.06F
LA JOLLA SCRIP   N/A    N/A N/A N/A W7        30.01F
FALLBROOK        N/A     75  65  71 S7        30.02F
ESCONDIDO        N/A     77  65  65 SW3       30.02F
SAN MARCOS       N/A     71  63  77 W7        30.01F
POWAY            N/A     76  65  68 S3        30.03F

$$

EAST SAN DIEGO COUNTY

CITY           SKY/WX    TMP DP  RH WIND       PRES   REMARKS
RAMONA         SUNNY     77  59  53 VRB5      30.03F
LA MESA          N/A     68  63  82 SW3       29.79F
JAMUL            N/A     72  63  72 CALM      30.01F
DESCANSO N       N/A     79  60  51 W2        29.86F
CAMPO            N/A     79  60  52 SW14      30.02F

$$

ORANGE COUNTY AND THE LOS ANGELES BASIN

CITY           SKY/WX    TMP DP  RH WIND       PRES   REMARKS
JOHN WAYNE AP  PTSUNNY   71  60  68 CALM      30.03F
LAKE FOREST FR   N/A     76  60  58 W3        29.92F
SANTA ANA        N/A     74  63  67 CALM      29.98F
HUNTINGTON BCH   N/A     71  64  77 W5        30.05F
LOS ALAMITOS   CLOUDY    72  62  69 VRB5      30.03F
FULLERTON      PTSUNNY   74  60  61 SW6       30.02F
LONG BEACH     CLOUDY    72  60  66 VRB6      30.03F
L.A. AP        CLOUDY    68  60  75 SW12      30.04F
L.A. DOWNTOWN  MOSUNNY   73  61  65 CALM      30.02F

$$

THE INLAND EMPIRE

CITY           SKY/WX    TMP DP  RH WIND       PRES   REMARKS
CORONA         CLOUDY    78  61  55 W8        30.01F
CHINO          MOSUNNY   80  60  50 NW8       30.02F
ONTARIO        MOSUNNY   77  59  53 SW12      30.01F
SAN BERNARDINO MOSUNNY   79  55  44 SW7       30.02F HAZE
RIVERSIDE AP   SUNNY     79  60  52 VRB6      30.01F
MORENO VALLEY    N/A     83  63  51 NW6       30.00F
MARCH ARB      MOSUNNY   80  58  47 NW9       30.02F
HORSETHIEF CYN   N/A     80  57  44 NW3       30.02F
PERRIS           N/A     80  60  50 NW7         N/A
MENIFEE          N/A     84  63  49 S2        30.06F
HEMET EAST       N/A     79  57  46 CALM      30.02F
FRENCH VALLEY  FAIR      77  59  53 S6        30.03F
TEMECULA         N/A     79  63  58 W3        29.97F

$$

SAN BERNARDINO AND RIVERSIDE COUNTY MOUNTAINS

CITY           SKY/WX    TMP DP  RH WIND       PRES   REMARKS
BIG BEAR AP    RAIN      63  48  59 N5        30.35R
ANGELUS OAKS     N/A     82  57  42 NW1       29.79F
PINE COVE        N/A     80  56  43 S1        29.89F

$$

SOUTHERN DESERT INCLUDING THE COACHELLA VALLEY

CITY           SKY/WX    TMP DP  RH WIND       PRES   REMARKS
PALM SPRINGS   MOSUNNY  101  51  18 SE6       29.91F HX  98
THOUSAND PALMS   N/A     99  55  22 E2        29.87F HX  97
PALM DESERT      N/A    101  59  24 NE2       28.77R HX 101
THERMAL        SUNNY    102  50  17 E10       29.84F HX  99
BLYTHE         SUNNY    103  53  19 S10       29.88F HX 101
IMPERIAL AP    SUNNY    100  58  24 MISG      29.84F HX  99
EL CENTRO NAS  MOSUNNY  100  61  27 S5        29.86F HX 101
YUMA AZ        SUNNY     99  68  36 CALM      29.86F HX 104
MEXICALI       MOSUNNY   99  48  18 S10       29.86  HX  95

$$

UPPER DESERT

CITY           SKY/WX    TMP DP  RH WIND       PRES   REMARKS
VICTORVILLE AP SUNNY     93  43  17 CALM      30.02F
HESPERIA         N/A     94  54  25 W14       29.96F
APPLE VALLEY     N/A     97  47  18 CALM      30.05F
PALMDALE       SUNNY     95  42  16 S12       30.01F
LANCASTER      SUNNY     97  46  17 W12       30.00F
EDWARDS AFB    MOSUNNY   94  44  17 VRB1      29.98F
DAGGETT        SUNNY     99  51  19 NE12G17   29.95F HX  96
29 PALMS N     SUNNY     98  46  17 E6        30.03F
NEEDLES        SUNNY    102  56  21 CALM      29.90F HX 101

$$

REGIONAL REPORTS

CITY           SKY/WX    TMP DP  RH WIND       PRES   REMARKS
SANTA BARBARA  CLOUDY    66  59  78 VRB7      30.05F
SANDBERG       SUNNY     87  43  21 S15G21    30.18S
LAS VEGAS NV   MOSUNNY   96  55  25 VRB5      29.95F
PHOENIX AZ     MOSUNNY  100  60  26 SW9       29.92F HX 100
TIJUANA          N/A    N/A N/A N/A MISG        N/A
ENSENADA NW      N/A     70  32  24 W14       30.02F

$$

OFFSHORE ISLANDS

CITY           SKY/WX    TMP DP  RH WIND       PRES   REMARKS
CATALINA ARPT  FOG       59  58  96 W8        30.08F VSB 1/4
SAN CLEMENTE I CLOUDY    67  57  70 W9        30.08F
SAN NICOLAS IS CLOUDY   N/A N/A N/A NW14      30.07S

$$

MARINE AND OFFSHORE BUOY REPORTS

STATION/POSITION SKY/WX   TEMP    WIND        PRES    SWELL
                          AIR SEA DIR/SP/G            HT/PER/DIR
                          (F)     (DEG/KT/KT) (MB)    (FT/S/D)
TANNER BANKS               62 64  310/  8/ 10 1018.5F   3/220/15
S CLEMENTE BASIN           64 68  290/ 12/ 14 1017.5F   3/220/15
SAN NICOLAS IS.               65                N/A     3/180/15
SO. S. ROSA ISLA           62 64  330/ 14/ 17 1017.3F   3/14
W. S. BARBARA CH           60 60  310/ 14/ 16 1017.3F   2/180/15
M. S. BARBARA CH           62 63  280/  4/  6 1018.3F
S. MONICA BASIN            63 68  250/  6/  8 1017.8F   2/250/14
S PEDRO CHANNEL               66                N/A     2/180/14
DANA POINT                    69                N/A     2/210/14
OCEANSIDE OFFSHR              69                N/A     2/200/13
TORREY PINES OTR              70                N/A     2/210/13
LA JOLLA 1                 67 70  320/  4/  6 1017.6F
MISSION BAY BUOY              70                N/A     2/200/14
SAN DIEGO BAY                 71              1018.2F
POINT LOMA SOUTH              69                N/A     3/200/14

$$




USA.gov is the U.S. government's official web portal to all federal, state and local government web resources and services.